Location: Im Fang
(46.6019°N, 7.2397°E)
Time: 02:56:19
(UTC+00:00)

Envisat - Pass Details

Date: 06 March 2021
Orbit: 764 x 766 km, 98.1° (Epoch: 18 April)

Event Time Altitude Azimuth Distance (km) Brightness Sun altitude
Rises 04:46:26 0° 18° (NNE) 3,245 6.6 -13.6°
Reaches altitude 10° 04:48:51 10° 25° (NNE) 2,313 5.9 -13.2°
Maximum altitude 04:53:45 46° 98° (E) 1,024 4.2 -12.4°
Drops below altitude 10° 04:58:36 10° 172° (S) 2,295 5.5 -11.6°
Sets 05:00:59 0° 178° (S) 3,216 6.2 -11.1°
